GW3305 Weather Reports


time (UTC)temp
C
wind
direction
speed
KPH
gust
KPH
rain 1hr
cm
rain 24hr
cm
rain mn
cm
humidity
%
barometer
mb
20260506140107 12 219 1.6 11.3 0.00 0.03 0.00 88 1021.3
20260506134555 12 0 1.6 9.7 0.00 0.05 0.00 88 1021.2
20260506133057 12 262 3.2 11.3 0.00 0.05 0.00 88 1021.1
20260506131557 12 261 0.0 8.0 0.00 0.05 0.00 88 1021.0
20260506130058 12 0 1.6 8.0 0.00 0.05 0.00 88 1020.8
20260506124555 12 245 4.8 12.9 0.00 0.08 0.00 88 1020.5
20260506123057 12 246 3.2 9.7 0.00 0.08 0.00 88 1020.6
20260506121557 12 232 4.8 11.3 0.00 0.08 0.00 88 1020.6
20260506120059 12 267 3.2 11.3 0.00 0.08 0.00 88 1020.5
20260506114602 12 244 1.6 14.5 0.00 0.08 0.00 88 1020.4
20260506113100 12 202 3.2 12.9 0.00 0.08 0.00 88 1020.4
20260506111603 12 259 3.2 11.3 0.00 0.08 0.00 88 1020.3
20260506110111 12 259 1.6 8.0 0.00 0.08 0.00 88 1020.2
20260506104601 12 205 0.0 8.0 0.00 0.10 0.00 88 1020.1
20260506103057 12 213 3.2 8.0 0.00 0.10 0.00 89 1020.0
20260506101556 12 253 1.6 6.4 0.00 0.10 0.00 89 1019.8
20260506100056 12 0 1.6 6.4 0.00 0.10 0.00 89 1019.9
20260506094559 12 204 1.6 6.4 0.00 0.13 0.00 89 1019.8
20260506093100 12 275 1.6 8.0 0.00 0.13 0.00 89 1019.9
20260506091601 12 177 3.2 8.0 0.00 0.13 0.00 89 1020.0
20260506090101 12 218 0.0 8.0 0.00 0.13 0.00 89 1019.9
20260506084602 12 0 0.0 8.0 0.00 0.18 0.00 89 1020.0
20260506083057 12 186 1.6 8.0 0.00 0.18 0.00 89 1019.8
20260506081600 12 0 0.0 6.4 0.00 0.18 0.00 89 1019.9
20260506080105 12 179 3.2 9.7 0.00 0.18 0.00 89 1019.8
20260506073058 12 192 3.2 8.0 0.00 0.23 0.00 89 1019.5
20260506071602 12 186 3.2 9.7 0.00 0.23 0.00 88 1019.5
20260506061555 12 175 4.8 9.7 0.00 0.28 0.23 88 1019.4
20260506050105 12 172 3.2 11.3 0.00 0.30 0.23 87 1018.8
20260506044555 12 185 3.2 11.3 0.00 0.36 0.23 87 1018.5
20260506043100 12 164 4.8 9.7 0.00 0.36 0.23 87 1018.5
20260506041558 12 205 1.6 8.0 0.00 0.36 0.23 87 1018.3
20260506040054 12 199 0.0 9.7 0.00 0.36 0.23 87 1018.1
20260506034614 13 187 3.2 12.9 0.00 0.38 0.23 86 1018.1
20260506033056 13 194 4.8 11.3 0.00 0.38 0.23 86 1018.0
20260506031607 13 188 4.8 12.9 0.00 0.38 0.23 85 1017.7
20260506030058 13 185 4.8 14.5 0.00 0.38 0.23 85 1017.5
20260506024613 13 188 3.2 16.1 0.00 0.46 0.23 84 1017.1
20260506023055 13 202 6.4 14.5 0.00 0.46 0.23 84 1017.4
20260506021555 13 188 6.4 16.1 0.00 0.46 0.23 83 1017.2
20260506020058 14 176 6.4 16.1 0.00 0.46 0.23 83 1017.2
20260506014557 14 192 4.8 14.5 0.00 0.53 0.23 83 1017.3
20260506013108 14 184 6.4 16.1 0.00 0.53 0.23 83 1017.5
20260506011607 14 185 8.0 16.1 0.00 0.53 0.23 82 1017.4
20260506010058 14 178 8.0 14.5 0.00 0.53 0.23 82 1017.3
20260506004558 14 211 6.4 12.9 0.00 0.64 0.23 82 1017.3
20260506003058 14 224 8.0 14.5 0.00 0.64 0.23 82 1017.3
20260506001557 15 215 8.0 16.1 0.00 0.64 0.23 81 1017.4
20260506000058 15 205 6.4 14.5 0.00 0.64 0.23 81 1017.3
20260505234557 15 199 6.4 16.1 0.00 0.64 0.23 80 1017.3
20260505233059 15 182 6.4 16.1 0.00 0.64 0.23 80 1017.4
20260505231601 15 164 6.4 14.5 0.00 0.64 0.23 79 1017.5
20260505230107 15 238 8.0 16.1 0.00 0.64 0.23 80 1017.4
20260505224602 15 193 8.0 14.5 0.00 0.64 0.23 80 1017.5
20260505223110 15 226 6.4 16.1 0.00 0.64 0.23 80 1017.6
20260505221559 15 169 8.0 16.1 0.00 0.64 0.23 79 1017.5
20260505220103 15 186 8.0 16.1 0.00 0.64 0.23 80 1017.5
20260505214555 15 208 8.0 14.5 0.00 0.64 0.23 80 1017.6
20260505213100 15 240 6.4 14.5 0.00 0.64 0.23 80 1017.6
20260505211558 15 188 8.0 16.1 0.00 0.64 0.23 79 1017.9
20260505210057 15 214 6.4 14.5 0.00 0.64 0.23 79 1017.7
20260505204609 16 188 6.4 16.1 0.00 0.64 0.23 79 1017.6
20260505203118 15 217 8.0 12.9 0.00 0.64 0.23 78 1017.7
20260505201603 15 225 6.4 12.9 0.00 0.64 0.23 80 1017.7
20260505200055 15 195 6.4 16.1 0.00 0.64 0.23 82 1017.8
20260505194607 15 203 6.4 14.5 0.00 0.64 0.23 83 1017.9
20260505193053 15 201 6.4 14.5 0.00 0.64 0.23 83 1017.8
20260505191558 14 184 4.8 16.1 0.00 0.64 0.23 84 1017.9
20260505190053 14 207 4.8 14.5 0.00 0.64 0.23 85 1017.9
20260505184555 14 253 4.8 11.3 0.00 0.64 0.23 86 1017.9
20260505183100 13 226 6.4 14.5 0.00 0.64 0.23 88 1017.6
20260505181555 13 192 8.0 14.5 0.00 0.64 0.23 89 1017.5
20260505180054 13 228 6.4 16.1 0.00 0.64 0.23 89 1017.5
20260505174557 13 182 6.4 16.1 0.00 0.64 0.23 90 1017.1
20260505173054 13 226 4.8 11.3 0.00 0.64 0.23 90 1017.0
20260505171558 12 224 4.8 12.9 0.00 0.64 0.23 90 1017.0
20260505170105 13 208 4.8 14.5 0.00 0.64 0.23 91 1016.8
20260505164605 12 205 4.8 11.3 0.00 0.64 0.23 91 1016.8
20260505163100 12 151 4.8 11.3 0.00 0.64 0.23 91 1016.5
20260505161555 12 225 3.2 14.5 0.03 0.64 0.23 91 1016.6
20260505153109 12 215 3.2 16.1 0.03 0.64 0.23 91 1016.1
20260505151600 12 0 3.2 17.7 0.00 0.61 0.20 91 1016.2